NINGXIA-1 9 (49021 NORAD) Tracking and Keplerian Element Data

This shows tracking and keplerian element data for the satellite.

Feedback or suggestion? Click here.




ElementValue
Catalog49021
NameNINGXIA-1 9
Epoch Orbit1553
Epoch Day300.69061202
Epoch Year2021
RAAN313.9438
Inclination45.0063
Eccentricity0.0007277
Argument of Perigee65.5159
Mean Anonmoly294.6438
Mean Motion14.08036855
Decay Rate-9.8E-07
L11 49021U 21064D 21300.69061202 -.00000098 00000-0 19592-4 0 9999
L22 49021 45.0063 313.9438 0007277 65.5159 294.6438 14.08036855 15531

Live tracking and technical data element details for NINGXIA-1 9 (NORAD 49021). NINGXIA-1 9 can be tracked NOW for your location showing map with azimuth and elevation plus other details from your city location.

Track the satellite on the map from your city or location and see movement details for azimuth, elevation, latitude, longitude, range, height, and movement on the map or in text.







IsCatalogInMostPopularTable: catalog: 49021, numindb: 18
Update: records affected: 1



GetName: 49021 NINGXIA-1 9

Hit Count: updated at: Thu, 28 Oct 2021 11:55:00 GMT